Terminal Aerodrome Forecast
Issued by NWS

Home | Current Version | Previous Version | Text Only | Print | Product List | Glossary On
Versions: 1 2 3 4 5 6 7 8 9 10 11 12 13 14 15 16 17 18 19 20 21 22 23 24 25 26 27 28 29 30 31 32 33 34 35 36 37 38 39 40
012
FTPA31 PHFO 171738
TAFMDY
TAF
PMDY 171738Z 1718/1818 VRB06KT P6SM FEW030 SCT045
     FM180000 17015KT P6SM VCSH BKN030 OVC045
     FM180600 22020KT 5SM -RA BR BKN025 OVC040=

USA.gov is the U.S. government's official web portal to all federal, state and local government web resources and services.